Orbital Elements at Epoch 2459200.5 (2020-Dec-17.0) TDB
Reference: JPL 23 (heliocentric ecliptic J2000)
Element | Value | Uncertainty (1-sigma) | Units |
e | .3610821306758615 | 4.1373e-08 | |
a | 2.208652259960866 | 7.1027e-09 | au |
q | 1.411147396012139 | 9.3954e-08 | au |
i | 2.741445523065514 | 3.6671e-06 | deg |
node | 100.4852109066377 | 7.157e-05 | deg |
peri | 257.1511247616721 | 7.1847e-05 | deg |
M | 208.060967148631 | 6.4384e-06 | deg |
tp | 2459706.506737737261 (2022-May-07.00673774) | 2.3306e-05 | TDB |
period | 1198.917895993259 3.28 | 5.7833e-06 1.583e-08 | d yr |
n | .3002707701695896 | 1.4484e-09 | deg/d |
Q | 3.006157123909591 | 9.6673e-09 | au |
|
| | Orbit Determination Parameters
Additional Information
|